Time,TemperatureF,DewpointF,PressureIn,WindDirection,WindDirectionDegrees,WindSpeedMPH,WindSpeedGustMPH,Humidity,HourlyPrecipIn,Conditions,Clouds,dailyrainin,SoftwareType,DateUTC
2013-02-28 01:31:00,17.0,6.0,-100.00,NE,55,2.0,3.0,62,-99.99,,,0.00,,2013-02-28 08:31:00,
2013-02-28 02:11:00,17.0,6.0,-100.00,NE,55,2.0,3.0,62,-99.99,,,0.00,,2013-02-28 09:11:00,
2013-02-28 02:21:00,17.0,6.0,-100.00,NE,55,2.0,3.0,62,-99.99,,,0.00,,2013-02-28 09:21:00,
2013-02-28 03:11:00,21.0,8.0,-100.00,NE,45,4.0,6.0,56,-99.99,,,0.00,,2013-02-28 10:11:00,
2013-02-28 03:21:00,21.0,8.0,-100.00,NE,45,4.0,6.0,56,-99.99,,,0.00,,2013-02-28 10:21:00,
2013-02-28 03:31:00,21.0,8.0,-100.00,NE,45,4.0,6.0,56,-99.99,,,0.00,,2013-02-28 10:31:00,
2013-02-28 04:01:00,24.0,14.0,-100.00,SW,230,14.0,18.0,64,-99.99,,,0.00,,2013-02-28 11:01:00,
2013-02-28 04:11:00,23.0,10.0,-100.00,SW,230,11.0,13.0,57,-99.99,,,0.00,,2013-02-28 11:11:00,
2013-02-28 04:21:00,23.0,10.0,-100.00,SW,230,11.0,13.0,57,-99.99,,,0.00,,2013-02-28 11:21:00,
2013-02-28 04:32:00,24.0,14.0,-100.00,SW,230,14.0,18.0,64,-99.99,,,0.00,,2013-02-28 11:32:00,
2013-02-28 04:42:00,24.0,14.0,-100.00,SW,230,14.0,18.0,64,-99.99,,,0.00,,2013-02-28 11:42:00,
2013-02-28 04:52:00,24.0,14.0,-100.00,SW,230,14.0,18.0,64,-99.99,,,0.00,,2013-02-28 11:52:00,
2013-02-28 05:32:00,23.0,16.0,-100.00,SW,235,11.0,14.0,71,-99.99,,,0.00,,2013-02-28 12:32:00,
2013-02-28 05:42:00,23.0,16.0,-100.00,SW,235,11.0,14.0,71,-99.99,,,0.00,,2013-02-28 12:42:00,
2013-02-28 05:52:00,23.0,16.0,-100.00,SW,235,11.0,14.0,71,-99.99,,,0.00,,2013-02-28 12:52:00,
2013-02-28 06:01:00,23.0,16.0,-100.00,SW,235,11.0,14.0,71,-99.99,,,0.00,,2013-02-28 13:01:00,
2013-02-28 06:11:00,23.0,16.0,-100.00,WSW,245,9.0,11.0,74,-99.99,,,0.00,,2013-02-28 13:11:00,
2013-02-28 06:21:00,23.0,16.0,-100.00,WSW,245,9.0,11.0,74,-99.99,,,0.00,,2013-02-28 13:21:00,
2013-02-28 07:01:00,25.0,16.0,-100.00,WSW,255,6.0,7.0,70,-99.99,,,0.00,,2013-02-28 14:01:00,
2013-02-28 07:11:00,24.0,16.0,-100.00,WSW,250,6.0,10.0,71,-99.99,,,0.00,,2013-02-28 14:11:00,
2013-02-28 07:21:00,24.0,16.0,-100.00,WSW,250,6.0,10.0,71,-99.99,,,0.00,,2013-02-28 14:21:00,
2013-02-28 07:32:00,25.0,16.0,-100.00,WSW,255,6.0,7.0,70,-99.99,,,0.00,,2013-02-28 14:32:00,
2013-02-28 07:42:00,25.0,16.0,-100.00,WSW,255,6.0,7.0,70,-99.99,,,0.00,,2013-02-28 14:42:00,
2013-02-28 07:52:00,25.0,16.0,-100.00,WSW,255,6.0,7.0,70,-99.99,,,0.00,,2013-02-28 14:52:00,
2013-02-28 08:00:00,25.0,17.0,-100.00,WNW,300,5.0,8.0,72,-99.99,,,0.00,,2013-02-28 15:00:00,
2013-02-28 08:11:00,25.0,17.0,-100.00,West,265,6.0,7.0,72,-99.99,,,0.00,,2013-02-28 15:11:00,
2013-02-28 08:21:00,25.0,17.0,-100.00,West,265,6.0,7.0,72,-99.99,,,0.00,,2013-02-28 15:21:00,
2013-02-28 08:32:00,25.0,17.0,-100.00,WNW,300,5.0,8.0,72,-99.99,,,0.00,,2013-02-28 15:32:00,
2013-02-28 08:41:00,25.0,17.0,-100.00,WNW,300,5.0,8.0,72,-99.99,,,0.00,,2013-02-28 15:41:00,
2013-02-28 08:52:00,25.0,17.0,-100.00,WNW,300,5.0,8.0,72,-99.99,,,0.00,,2013-02-28 15:52:00,
2013-02-28 09:11:00,25.0,17.0,-100.00,WNW,295,3.0,4.0,71,-99.99,,,0.00,,2013-02-28 16:11:00,
2013-02-28 09:22:00,25.0,17.0,-100.00,WNW,295,3.0,4.0,71,-99.99,,,0.00,,2013-02-28 16:22:00,
2013-02-28 09:30:00,27.0,20.0,-100.00,West,260,6.0,7.0,73,-99.99,,,0.00,,2013-02-28 16:30:00,
2013-02-28 09:32:00,27.0,18.0,-100.00,West,280,6.0,8.0,70,-99.99,,,0.00,,2013-02-28 16:32:00,
2013-02-28 09:42:00,27.0,18.0,-100.00,West,280,6.0,8.0,70,-99.99,,,0.00,,2013-02-28 16:42:00,
2013-02-28 09:52:00,27.0,18.0,-100.00,West,280,6.0,8.0,70,-99.99,,,0.00,,2013-02-28 16:52:00,
2013-02-28 10:01:00,27.0,18.0,-100.00,West,280,6.0,8.0,70,-99.99,,,0.00,,2013-02-28 17:01:00,
2013-02-28 10:11:00,27.0,20.0,-100.00,West,260,6.0,7.0,73,-99.99,,,0.00,,2013-02-28 17:11:00,
2013-02-28 10:21:00,27.0,20.0,-100.00,West,260,6.0,7.0,73,-99.99,,,0.00,,2013-02-28 17:21:00,
2013-02-28 10:42:00,26.0,20.0,-100.00,WSW,255,9.0,10.0,77,-99.99,,,0.00,,2013-02-28 17:42:00,
2013-02-28 10:52:00,26.0,20.0,-100.00,WSW,255,9.0,10.0,77,-99.99,,,0.00,,2013-02-28 17:52:00,
2013-02-28 11:00:00,28.0,24.0,-100.00,West,270,3.0,6.0,87,-99.99,,,0.00,,2013-02-28 18:00:00,
2013-02-28 11:11:00,26.0,22.0,-100.00,West,260,5.0,9.0,86,-99.99,,,0.00,,2013-02-28 18:11:00,
2013-02-28 11:21:00,26.0,22.0,-100.00,West,260,5.0,9.0,86,-99.99,,,0.00,,2013-02-28 18:21:00,
2013-02-28 11:32:00,28.0,24.0,-100.00,West,270,3.0,6.0,87,-99.99,,,0.00,,2013-02-28 18:32:00,
2013-02-28 11:42:00,28.0,24.0,-100.00,West,270,3.0,6.0,87,-99.99,,,0.00,,2013-02-28 18:42:00,
2013-02-28 11:52:00,28.0,24.0,-100.00,West,270,3.0,6.0,87,-99.99,,,0.00,,2013-02-28 18:52:00,
2013-02-28 12:11:00,28.0,23.0,-100.00,SW,225,3.0,4.0,81,-99.99,,,0.00,,2013-02-28 19:11:00,
2013-02-28 12:21:00,28.0,23.0,-100.00,SW,225,3.0,4.0,81,-99.99,,,0.00,,2013-02-28 19:21:00,
2013-02-28 12:32:00,29.0,23.0,-100.00,SW,225,8.0,10.0,77,-99.99,,,0.00,,2013-02-28 19:32:00,
2013-02-28 12:42:00,29.0,23.0,-100.00,SW,225,8.0,10.0,77,-99.99,,,0.00,,2013-02-28 19:42:00,
2013-02-28 12:51:00,29.0,23.0,-100.00,SW,225,8.0,10.0,77,-99.99,,,0.00,,2013-02-28 19:51:00,
2013-02-28 13:01:00,29.0,23.0,-100.00,SW,225,8.0,10.0,77,-99.99,,,0.00,,2013-02-28 20:01:00,
2013-02-28 13:12:00,30.0,21.0,-100.00,SW,225,11.0,13.0,68,-99.99,,,0.00,,2013-02-28 20:12:00,
2013-02-28 13:21:00,30.0,21.0,-100.00,SW,225,11.0,13.0,68,-99.99,,,0.00,,2013-02-28 20:21:00,
2013-02-28 13:31:00,31.0,21.0,-100.00,SW,235,9.0,14.0,66,-99.99,,,0.00,,2013-02-28 20:31:00,
2013-02-28 13:41:00,31.0,21.0,-100.00,SW,235,9.0,14.0,66,-99.99,,,0.00,,2013-02-28 20:41:00,
2013-02-28 13:52:00,31.0,21.0,-100.00,SW,235,9.0,14.0,66,-99.99,,,0.00,,2013-02-28 20:52:00,
2013-02-28 14:01:00,32.0,21.0,-100.00,WSW,255,8.0,9.0,62,-99.99,,,0.00,,2013-02-28 21:01:00,
2013-02-28 14:11:00,32.0,21.0,-100.00,WSW,240,7.0,11.0,65,-99.99,,,0.00,,2013-02-28 21:11:00,
2013-02-28 14:22:00,32.0,21.0,-100.00,WSW,240,7.0,11.0,65,-99.99,,,0.00,,2013-02-28 21:22:00,
2013-02-28 14:31:00,32.0,21.0,-100.00,WSW,255,8.0,9.0,62,-99.99,,,0.00,,2013-02-28 21:31:00,
2013-02-28 14:41:00,32.0,21.0,-100.00,WSW,255,8.0,9.0,62,-99.99,,,0.00,,2013-02-28 21:41:00,
2013-02-28 14:51:00,32.0,21.0,-100.00,WSW,255,8.0,9.0,62,-99.99,,,0.00,,2013-02-28 21:51:00,
2013-02-28 15:11:00,32.0,22.0,-100.00,SW,235,9.0,12.0,65,-99.99,,,0.00,,2013-02-28 22:11:00,
2013-02-28 15:21:00,32.0,22.0,-100.00,SW,235,9.0,12.0,65,-99.99,,,0.00,,2013-02-28 22:21:00,
2013-02-28 15:31:00,32.0,22.0,-100.00,SW,220,6.0,12.0,66,-99.99,,,0.00,,2013-02-28 22:31:00,
2013-02-28 15:41:00,32.0,22.0,-100.00,SW,220,6.0,12.0,66,-99.99,,,0.00,,2013-02-28 22:41:00,
2013-02-28 15:52:00,32.0,22.0,-100.00,SW,220,6.0,12.0,66,-99.99,,,0.00,,2013-02-28 22:52:00,
2013-02-28 16:01:00,32.0,22.0,-100.00,SW,220,6.0,12.0,66,-99.99,,,0.00,,2013-02-28 23:01:00,
2013-02-28 16:11:00,32.0,21.0,-100.00,SW,230,8.0,10.0,63,-99.99,,,0.00,,2013-02-28 23:11:00,
2013-02-28 16:21:00,32.0,21.0,-100.00,SW,230,8.0,10.0,63,-99.99,,,0.00,,2013-02-28 23:21:00,
2013-02-28 16:31:00,32.0,21.0,-100.00,SW,215,8.0,12.0,63,-99.99,,,0.00,,2013-02-28 23:31:00,
2013-02-28 16:41:00,32.0,21.0,-100.00,SW,215,8.0,12.0,63,-99.99,,,0.00,,2013-02-28 23:41:00,
2013-02-28 16:52:00,32.0,21.0,-100.00,SW,215,8.0,12.0,63,-99.99,,,0.00,,2013-02-28 23:52:00,
2013-02-28 17:01:00,32.0,22.0,-100.00,SW,225,5.0,8.0,66,-99.99,,,0.00,,2013-03-01 00:01:00,
2013-02-28 17:11:00,31.0,22.0,-100.00,SW,235,8.0,9.0,69,-99.99,,,0.00,,2013-03-01 00:11:00,
2013-02-28 17:22:00,31.0,22.0,-100.00,SW,235,8.0,9.0,69,-99.99,,,0.00,,2013-03-01 00:22:00,
2013-02-28 17:32:00,32.0,22.0,-100.00,SW,225,5.0,8.0,66,-99.99,,,0.00,,2013-03-01 00:32:00,
2013-02-28 17:42:00,32.0,22.0,-100.00,SW,225,5.0,8.0,66,-99.99,,,0.00,,2013-03-01 00:42:00,
2013-02-28 17:52:00,32.0,22.0,-100.00,SW,225,5.0,8.0,66,-99.99,,,0.00,,2013-03-01 00:52:00,
2013-02-28 18:11:00,32.0,23.0,-100.00,SW,230,6.0,11.0,69,-99.99,,,0.00,,2013-03-01 01:11:00,
2013-02-28 18:21:00,32.0,23.0,-100.00,SW,230,6.0,11.0,69,-99.99,,,0.00,,2013-03-01 01:21:00,
2013-02-28 18:31:00,30.0,25.0,-100.00,SW,215,12.0,15.0,83,-99.99,,,0.00,,2013-03-01 01:31:00,
2013-02-28 18:42:00,30.0,25.0,-100.00,SW,215,12.0,15.0,83,-99.99,,,0.00,,2013-03-01 01:42:00,
2013-02-28 18:51:00,30.0,25.0,-100.00,SW,215,12.0,15.0,83,-99.99,,,0.00,,2013-03-01 01:51:00,
2013-02-28 19:01:00,30.0,25.0,-100.00,SW,215,12.0,15.0,83,-99.99,,,0.00,,2013-03-01 02:01:00,
2013-02-28 19:11:00,29.0,26.0,-100.00,SW,225,7.0,9.0,91,-99.99,,,0.00,,2013-03-01 02:11:00,
2013-02-28 19:21:00,29.0,26.0,-100.00,SW,225,7.0,9.0,91,-99.99,,,0.00,,2013-03-01 02:21:00,
2013-02-28 19:31:00,29.0,27.0,-100.00,NE,35,1.0,1.0,93,-99.99,,,0.00,,2013-03-01 02:31:00,
2013-02-28 19:42:00,29.0,27.0,-100.00,NE,35,1.0,1.0,93,-99.99,,,0.00,,2013-03-01 02:42:00,
2013-02-28 19:52:00,29.0,27.0,-100.00,NE,35,1.0,1.0,93,-99.99,,,0.00,,2013-03-01 02:52:00,
2013-02-28 20:01:00,29.0,27.0,-100.00,NE,35,1.0,1.0,93,-99.99,,,0.00,,2013-03-01 03:01:00,
2013-02-28 20:32:00,29.0,27.0,-100.00,NE,50,2.0,5.0,92,-99.99,,,0.00,,2013-03-01 03:32:00,
2013-02-28 20:41:00,29.0,27.0,-100.00,NE,50,2.0,5.0,92,-99.99,,,0.00,,2013-03-01 03:41:00,
2013-02-28 20:51:00,29.0,27.0,-100.00,NE,50,2.0,5.0,92,-99.99,,,0.00,,2013-03-01 03:51:00,
2013-02-28 21:11:00,29.0,26.0,-100.00,NNE,25,0.0,4.0,89,-99.99,,,0.00,,2013-03-01 04:11:00,
2013-02-28 21:21:00,29.0,26.0,-100.00,NNE,25,0.0,4.0,89,-99.99,,,0.00,,2013-03-01 04:21:00,
2013-02-28 21:31:00,29.0,26.0,-100.00,West,270,0.0,1.0,88,-99.99,,,0.00,,2013-03-01 04:31:00,
2013-02-28 21:42:00,29.0,26.0,-100.00,West,270,0.0,1.0,88,-99.99,,,0.00,,2013-03-01 04:42:00,
2013-02-28 21:51:00,29.0,26.0,-100.00,West,270,0.0,1.0,88,-99.99,,,0.00,,2013-03-01 04:51:00,
2013-02-28 22:01:00,29.0,26.0,-100.00,West,270,0.0,1.0,88,-99.99,,,0.00,,2013-03-01 05:01:00,
2013-02-28 22:11:00,30.0,26.0,-100.00,West,265,4.0,6.0,87,-99.99,,,0.00,,2013-03-01 05:11:00,
2013-02-28 22:22:00,30.0,26.0,-100.00,West,265,4.0,6.0,87,-99.99,,,0.00,,2013-03-01 05:22:00,
2013-02-28 22:32:00,31.0,26.0,-100.00,WSW,245,10.0,12.0,83,-99.99,,,0.00,,2013-03-01 05:32:00,
2013-02-28 22:42:00,31.0,26.0,-100.00,WSW,245,10.0,12.0,83,-99.99,,,0.00,,2013-03-01 05:42:00,
2013-02-28 22:52:00,31.0,26.0,-100.00,WSW,245,10.0,12.0,83,-99.99,,,0.00,,2013-03-01 05:52:00,
2013-02-28 23:01:00,32.0,26.0,-100.00,SW,225,14.0,19.0,80,-99.99,,,0.00,,2013-03-01 06:01:00,
2013-02-28 23:11:00,32.0,26.0,-100.00,SW,235,12.0,14.0,81,-99.99,,,-99.99,,2013-03-01 06:11:00,
2013-02-28 23:21:00,32.0,26.0,-100.00,SW,235,12.0,14.0,81,-99.99,,,-99.99,,2013-03-01 06:21:00,
2013-02-28 23:32:00,32.0,26.0,-100.00,SW,225,14.0,19.0,80,-99.99,,,0.00,,2013-03-01 06:32:00,
2013-02-28 23:42:00,32.0,26.0,-100.00,SW,225,14.0,19.0,80,-99.99,,,0.00,,2013-03-01 06:42:00,
2013-02-28 23:52:00,32.0,26.0,-100.00,SW,225,14.0,19.0,80,-99.99,,,0.00,,2013-03-01 06:52:00,